User: anonymous   Login
Location: Unspecified
(0.0000°N, 0.0000°E)
Time: 16:42:25
(UTC+00:00)
Language:

OBJECT A - Orbit

View from above orbital plane
View from above orbital plane
View from above satellite
View from above satellite

Ground track
Ground track

The orbit data is extracted from the following two-line orbital elements,

1 41937U 17004A   17077.44396887 0.00000000  00000-0  00000-0 0    00
2 41937   0.0150  69.1008 0005459 224.2010 135.7655  1.00270000    02
Epoch (UTC): 18 March 2017 10:39:18
Eccentricity: 0.0005459
inclination: 0.0150°
perigee height: 35764 km
apogee height: 35810 km
right ascension of ascending node: 69.1008°
argument of perigee: 224.2010°
revolutions per day: 1.00270000
mean anomaly at epoch: 135.7655°
orbit number at epoch: 0

The dashed part of the orbit path shows where the satellite is in the earth's shadow,  

DLR